| time (UTC) | temp F | wind direction | speed knots | gust knots | rain 1hr in | rain 24hr in | rain mn in | humidity % | barometer mb |
| 20260504020148 | 46 | 45 | 0.0 | 0.0 | 0.00 | 0.00 | 0.00 | 58 | 327.5 |
| 20260504015642 | 46 | 46 | 0.0 | 0.0 | 0.00 | 0.00 | 0.00 | 58 | 327.5 |
| 20260504015136 | 46 | 46 | 0.0 | 0.0 | 0.00 | 0.00 | 0.00 | 58 | 327.5 |
| 20260504014630 | 46 | 45 | 0.0 | 0.0 | 0.00 | 0.00 | 0.00 | 58 | 327.6 |
| 20260504014124 | 46 | 44 | 0.0 | 0.0 | 0.00 | 0.00 | 0.00 | 57 | 327.6 |
| 20260504013618 | 46 | 47 | 2.6 | 0.0 | 0.00 | 0.00 | 0.00 | 56 | 327.5 |
| 20260504013112 | 46 | 48 | 1.7 | 0.0 | 0.00 | 0.00 | 0.00 | 57 | 327.5 |
| 20260504012606 | 47 | 48 | 0.0 | 0.0 | 0.00 | 0.00 | 0.00 | 56 | 327.4 |
| 20260504012100 | 47 | 42 | 0.9 | 0.0 | 0.00 | 0.00 | 0.00 | 56 | 327.4 |
| 20260504011554 | 47 | 46 | 0.0 | 0.0 | 0.00 | 0.00 | 0.00 | 57 | 327.5 |
| 20260504011048 | 46 | 49 | 0.0 | 0.0 | 0.00 | 0.00 | 0.00 | 56 | 327.5 |
| 20260504010542 | 46 | 45 | 1.7 | 0.0 | 0.00 | 0.00 | 0.00 | 57 | 327.5 |
| 20260504010036 | 46 | 46 | 1.7 | 0.0 | 0.00 | 0.00 | 0.00 | 57 | 327.4 |
| 20260504005530 | 47 | 47 | 0.9 | 0.0 | 0.00 | 0.00 | 0.00 | 56 | 327.3 |
| 20260504005024 | 46 | 47 | 0.0 | 0.0 | 0.00 | 0.00 | 0.00 | 57 | 327.3 |
| 20260504004518 | 46 | 46 | 0.0 | 0.0 | 0.00 | 0.00 | 0.00 | 58 | 327.3 |
| 20260504004012 | 47 | 49 | 0.0 | 0.0 | 0.00 | 0.00 | 0.00 | 58 | 327.3 |
| 20260504003506 | 47 | 46 | 0.0 | 0.0 | 0.00 | 0.00 | 0.00 | 57 | 327.3 |
| 20260504003000 | 47 | 44 | 0.0 | 0.0 | 0.00 | 0.00 | 0.00 | 56 | 327.2 |
| 20260504002454 | 48 | 46 | 0.0 | 0.0 | 0.00 | 0.00 | 0.00 | 55 | 327.2 |
| 20260504001948 | 49 | 45 | 0.0 | 0.0 | 0.00 | 0.00 | 0.00 | 55 | 327.1 |
| 20260504001442 | 49 | 43 | 0.0 | 0.0 | 0.00 | 0.00 | 0.00 | 53 | 327.1 |
| 20260504000936 | 50 | 45 | 0.0 | 0.0 | 0.00 | 0.00 | 0.00 | 51 | 327.1 |
| 20260504000431 | 49 | 48 | 0.9 | 0.0 | 0.00 | 0.00 | 0.00 | 50 | 327.2 |
| 20260503235924 | 50 | 45 | 0.0 | 0.0 | 0.00 | 0.00 | 0.00 | 51 | 327.2 |
| 20260503235418 | 49 | 47 | 0.0 | 0.0 | 0.00 | 0.00 | 0.00 | 51 | 327.2 |
| 20260503234912 | 49 | 46 | 0.0 | 0.0 | 0.00 | 0.00 | 0.00 | 51 | 327.2 |
| 20260503234406 | 49 | 44 | 0.0 | 0.0 | 0.00 | 0.00 | 0.00 | 53 | 327.2 |
| 20260503233900 | 48 | 48 | 0.0 | 0.0 | 0.00 | 0.00 | 0.00 | 54 | 327.2 |
| 20260503233354 | 48 | 47 | 0.0 | 0.0 | 0.00 | 0.00 | 0.00 | 54 | 327.2 |
| 20260503232848 | 48 | 46 | 0.0 | 0.0 | 0.00 | 0.00 | 0.00 | 53 | 327.2 |
| 20260503232342 | 48 | 44 | 0.0 | 0.0 | 0.00 | 0.00 | 0.00 | 54 | 327.3 |
| 20260503231836 | 48 | 45 | 0.0 | 0.0 | 0.00 | 0.00 | 0.00 | 55 | 327.3 |
| 20260503231330 | 48 | 46 | 0.0 | 0.0 | 0.00 | 0.00 | 0.00 | 55 | 327.2 |
| 20260503230824 | 47 | 48 | 0.0 | 0.0 | 0.00 | 0.00 | 0.00 | 55 | 327.2 |
| 20260503230318 | 48 | 47 | 0.0 | 0.0 | 0.00 | 0.00 | 0.00 | 56 | 327.1 |
| 20260503225812 | 48 | 44 | 0.0 | 0.0 | 0.00 | 0.00 | 0.00 | 56 | 327.0 |
| 20260503225306 | 48 | 44 | 0.0 | 0.0 | 0.00 | 0.00 | 0.00 | 57 | 327.0 |
| 20260503224800 | 48 | 46 | 0.0 | 0.0 | 0.00 | 0.00 | 0.00 | 57 | 327.0 |
| 20260503224254 | 48 | 47 | 0.0 | 0.0 | 0.00 | 0.00 | 0.00 | 56 | 327.0 |
| 20260503223748 | 48 | 45 | 0.0 | 0.0 | 0.00 | 0.00 | 0.00 | 55 | 327.0 |
| 20260503223242 | 49 | 46 | 0.0 | 0.0 | 0.00 | 0.00 | 0.00 | 54 | 327.0 |
| 20260503222736 | 49 | 47 | 0.0 | 0.0 | 0.00 | 0.00 | 0.00 | 54 | 327.0 |
| 20260503222230 | 49 | 45 | 0.0 | 0.0 | 0.00 | 0.00 | 0.00 | 53 | 327.0 |
| 20260503221724 | 49 | 46 | 0.0 | 0.0 | 0.00 | 0.00 | 0.00 | 52 | 327.0 |
| 20260503221218 | 50 | 42 | 0.0 | 0.0 | 0.00 | 0.00 | 0.00 | 51 | 327.0 |
| 20260503220712 | 50 | 45 | 0.0 | 0.0 | 0.00 | 0.00 | 0.00 | 52 | 327.0 |
| 20260503220206 | 50 | 50 | 0.0 | 0.0 | 0.00 | 0.00 | 0.00 | 51 | 327.0 |
| 20260503215700 | 49 | 41 | 1.7 | 0.0 | 0.00 | 0.00 | 0.00 | 52 | 327.0 |
| 20260503215154 | 49 | 45 | 0.9 | 0.0 | 0.00 | 0.00 | 0.00 | 53 | 326.9 |
| 20260503214648 | 49 | 47 | 1.7 | 0.0 | 0.00 | 0.00 | 0.00 | 53 | 326.9 |
| 20260503214142 | 50 | 42 | 0.0 | 0.0 | 0.00 | 0.00 | 0.00 | 53 | 326.8 |
| 20260503213636 | 50 | 47 | 0.0 | 0.0 | 0.00 | 0.00 | 0.00 | 53 | 326.8 |
| 20260503213130 | 50 | 47 | 0.0 | 0.0 | 0.00 | 0.00 | 0.00 | 53 | 326.8 |
| 20260503212624 | 50 | 47 | 0.9 | 0.0 | 0.00 | 0.00 | 0.00 | 52 | 326.8 |
| 20260503212118 | 50 | 46 | 0.9 | 0.0 | 0.00 | 0.00 | 0.00 | 52 | 326.7 |
| 20260503211612 | 51 | 47 | 0.9 | 0.0 | 0.00 | 0.00 | 0.00 | 52 | 326.7 |
| 20260503211106 | 51 | 47 | 0.0 | 0.0 | 0.00 | 0.00 | 0.00 | 51 | 326.7 |
| 20260503210600 | 51 | 46 | 0.9 | 0.0 | 0.00 | 0.00 | 0.00 | 51 | 326.7 |
| 20260503210054 | 51 | 48 | 0.0 | 0.0 | 0.00 | 0.00 | 0.00 | 51 | 326.7 |
| 20260503205548 | 51 | 48 | 0.0 | 0.0 | 0.00 | 0.00 | 0.07 | 51 | 326.7 |
| 20260503205042 | 51 | 45 | 0.0 | 0.0 | 0.00 | 0.00 | 0.07 | 51 | 326.7 |
| 20260503204536 | 51 | 45 | 0.0 | 0.0 | 0.00 | 0.00 | 0.07 | 52 | 326.6 |
| 20260503204030 | 51 | 46 | 0.0 | 0.0 | 0.00 | 0.00 | 0.07 | 51 | 326.6 |
| 20260503203524 | 51 | 47 | 0.0 | 0.0 | 0.00 | 0.00 | 0.07 | 51 | 326.6 |
| 20260503203018 | 51 | 47 | 0.0 | 0.0 | 0.00 | 0.00 | 0.07 | 51 | 326.7 |
| 20260503202512 | 51 | 46 | 0.0 | 0.0 | 0.00 | 0.00 | 0.07 | 50 | 326.7 |
| 20260503202006 | 51 | 46 | 0.0 | 0.0 | 0.00 | 0.00 | 0.07 | 50 | 326.7 |
| 20260503201500 | 50 | 49 | 1.7 | 0.0 | 0.00 | 0.00 | 0.07 | 52 | 326.7 |
| 20260503200954 | 50 | 46 | 0.9 | 0.0 | 0.00 | 0.00 | 0.07 | 53 | 326.7 |
| 20260503200448 | 50 | 49 | 0.0 | 0.0 | 0.00 | 0.00 | 0.07 | 54 | 326.6 |
| 20260503195942 | 50 | 47 | 0.0 | 0.0 | 0.00 | 0.00 | 0.07 | 54 | 326.6 |
| 20260503195436 | 50 | 43 | 0.0 | 0.0 | 0.00 | 0.00 | 0.07 | 55 | 326.6 |
| 20260503194930 | 51 | 45 | 0.0 | 0.0 | 0.00 | 0.00 | 0.07 | 53 | 326.6 |
| 20260503194424 | 51 | 48 | 0.0 | 0.0 | 0.00 | 0.00 | 0.07 | 51 | 326.6 |
| 20260503193918 | 51 | 46 | 0.0 | 0.0 | 0.00 | 0.00 | 0.07 | 53 | 326.6 |
| 20260503193412 | 51 | 45 | 0.9 | 0.0 | 0.00 | 0.00 | 0.07 | 53 | 326.6 |
| 20260503192906 | 50 | 45 | 1.7 | 0.0 | 0.00 | 0.00 | 0.07 | 53 | 326.6 |
| 20260503192400 | 50 | 46 | 0.0 | 0.0 | 0.00 | 0.00 | 0.07 | 55 | 326.6 |
| 20260503191854 | 51 | 50 | 0.0 | 0.0 | 0.00 | 0.00 | 0.07 | 55 | 326.6 |
| 20260503191348 | 51 | 45 | 0.0 | 0.0 | 0.00 | 0.00 | 0.07 | 54 | 326.6 |
| 20260503190842 | 51 | 48 | 0.0 | 0.0 | 0.00 | 0.00 | 0.07 | 54 | 326.5 |
| 20260503190336 | 51 | 46 | 0.0 | 10.4 | 0.00 | 0.00 | 0.07 | 55 | 326.4 |
| 20260503185830 | 51 | 49 | 0.9 | 10.4 | 0.00 | 0.00 | 0.07 | 53 | 326.4 |
| 20260503185324 | 50 | 49 | 0.0 | 0.0 | 0.00 | 0.00 | 0.07 | 57 | 326.4 |
| 20260503184818 | 50 | 50 | 0.0 | 0.0 | 0.00 | 0.00 | 0.07 | 57 | 326.4 |
| 20260503184312 | 50 | 48 | 0.0 | 0.0 | 0.00 | 0.00 | 0.07 | 58 | 326.3 |
| 20260503183806 | 50 | 48 | 0.0 | 0.0 | 0.00 | 0.00 | 0.07 | 57 | 326.3 |
| 20260503183300 | 51 | 51 | 0.0 | 0.0 | 0.00 | 0.00 | 0.07 | 56 | 326.2 |
| 20260503182754 | 51 | 48 | 0.0 | 0.0 | 0.00 | 0.00 | 0.07 | 55 | 326.2 |
| 20260503182248 | 51 | 55 | 0.0 | 0.0 | 0.00 | 0.00 | 0.07 | 55 | 326.2 |
| 20260503181742 | 52 | 49 | 0.0 | 0.0 | 0.00 | 0.00 | 0.07 | 55 | 326.1 |
| 20260503181236 | 52 | 47 | 0.0 | 0.0 | 0.00 | 0.00 | 0.07 | 53 | 326.1 |
| 20260503180730 | 52 | 46 | 0.0 | 0.0 | 0.00 | 0.00 | 0.07 | 53 | 326.0 |
| 20260503180224 | 53 | 48 | 0.0 | 0.0 | 0.00 | 0.00 | 0.07 | 51 | 326.0 |
| 20260503175718 | 53 | 51 | 0.0 | 0.0 | 0.00 | 0.00 | 0.07 | 50 | 326.0 |
| 20260503175212 | 53 | 49 | 0.0 | 0.0 | 0.00 | 0.00 | 0.07 | 48 | 326.0 |
| 20260503174706 | 53 | 52 | 0.0 | 0.0 | 0.00 | 0.00 | 0.07 | 47 | 325.9 |
| 20260503174200 | 53 | 50 | 0.0 | 0.0 | 0.00 | 0.00 | 0.07 | 47 | 325.9 |
| 20260503173654 | 54 | 53 | 0.0 | 0.0 | 0.00 | 0.00 | 0.07 | 47 | 325.8 |
| 20260503173148 | 54 | 53 | 0.9 | 0.0 | 0.00 | 0.00 | 0.07 | 47 | 325.7 |
| 20260503172642 | 54 | 55 | 0.0 | 0.0 | 0.00 | 0.00 | 0.07 | 47 | 325.6 |
| 20260503172136 | 55 | 59 | 0.9 | 0.0 | 0.00 | 0.00 | 0.07 | 46 | 325.4 |
| 20260503171630 | 56 | 58 | 0.0 | 0.0 | 0.00 | 0.00 | 0.07 | 44 | 325.2 |
| 20260503171124 | 58 | 63 | 0.0 | 0.0 | 0.00 | 0.00 | 0.07 | 43 | 324.9 |
| 20260503170618 | 58 | 71 | 0.0 | 0.0 | 0.00 | 0.00 | 0.07 | 42 | 324.9 |
| 20260503170112 | 59 | 73 | 0.0 | 0.0 | 0.00 | 0.00 | 0.07 | 43 | 324.8 |
| 20260503150900 | 60 | 107 | 0.0 | 0.0 | 0.00 | 0.00 | 0.07 | 36 | 325.2 |
| 20260503150354 | 61 | 119 | 0.9 | 0.0 | 0.00 | 0.00 | 0.07 | 33 | 325.2 |
| 20260503140242 | 60 | 28 | 2.6 | 0.0 | 0.00 | 0.00 | 0.07 | 33 | 325.4 |
| 20260503131142 | 60 | 270 | 1.7 | 0.0 | 0.00 | 0.00 | 0.07 | 32 | 325.3 |
| 20260503130636 | 60 | 198 | 1.7 | 0.0 | 0.00 | 0.00 | 0.07 | 32 | 325.2 |
| 20260503130130 | 61 | 264 | 1.7 | 0.0 | 0.00 | 0.00 | 0.07 | 34 | 325.2 |
| 20260503110412 | 58 | 151 | 2.6 | 0.0 | 0.00 | 0.00 | 0.07 | 40 | 325.3 |
| 20260503100300 | 60 | 65 | 0.0 | 0.0 | 0.00 | 0.00 | 0.07 | 38 | 325.1 |
| 20260503090148 | 56 | 264 | 0.9 | 0.0 | 0.00 | 0.00 | 0.07 | 45 | 325.9 |
| 20260503081554 | 54 | 188 | 1.7 | 0.0 | 0.00 | 0.00 | 0.07 | 49 | 326.4 |
| 20260503081048 | 54 | 169 | 0.9 | 0.0 | 0.00 | 0.00 | 0.07 | 53 | 326.4 |
| 20260503080542 | 53 | 224 | 1.7 | 0.0 | 0.00 | 0.00 | 0.07 | 52 | 326.5 |
| 20260503072454 | 53 | 126 | 1.7 | 0.0 | 0.00 | 0.00 | 0.07 | 50 | 326.6 |
| 20260503071948 | 53 | 323 | 2.6 | 0.0 | 0.00 | 0.00 | 0.07 | 51 | 326.5 |
| 20260503071442 | 53 | 193 | 1.7 | 0.0 | 0.00 | 0.00 | 0.07 | 51 | 326.6 |
| 20260503070936 | 52 | 328 | 1.7 | 0.0 | 0.00 | 0.00 | 0.07 | 50 | 326.7 |
| 20260503070430 | 53 | 333 | 1.7 | 0.0 | 0.00 | 0.00 | 0.07 | 52 | 326.6 |
| 20260503060318 | 52 | 233 | 1.7 | 0.0 | 0.00 | 0.00 | 0.07 | 62 | 326.7 |
| 20260503054800 | 52 | 217 | 0.0 | 0.0 | 0.00 | 0.00 | 0.07 | 65 | 326.7 |
| 20260503054254 | 51 | 186 | 0.0 | 0.0 | 0.00 | 0.00 | 0.07 | 66 | 326.7 |
| 20260503053748 | 51 | 149 | 0.0 | 0.0 | 0.00 | 0.00 | 0.07 | 67 | 326.8 |
| 20260503053242 | 51 | 136 | 0.0 | 0.0 | 0.00 | 0.00 | 0.07 | 68 | 326.8 |
| 20260503052736 | 51 | 129 | 1.7 | 0.0 | 0.00 | 0.00 | 0.07 | 68 | 326.8 |
| 20260503052230 | 51 | 122 | 0.0 | 0.0 | 0.00 | 0.00 | 0.07 | 70 | 326.8 |
| 20260503051724 | 51 | 149 | 0.9 | 0.0 | 0.00 | 0.00 | 0.07 | 70 | 326.8 |
| 20260503051218 | 51 | 138 | 0.0 | 0.0 | 0.00 | 0.00 | 0.07 | 72 | 326.8 |
| 20260503050712 | 50 | 104 | 0.0 | 0.0 | 0.00 | 0.00 | 0.07 | 75 | 326.8 |
| 20260503050206 | 49 | 68 | 0.0 | 0.0 | 0.00 | 0.00 | 0.07 | 77 | 326.9 |
| 20260503045700 | 48 | 74 | 0.0 | 0.0 | 0.00 | 0.00 | 0.07 | 79 | 326.9 |
| 20260503045154 | 47 | 76 | 0.0 | 0.0 | 0.00 | 0.00 | 0.07 | 79 | 327.0 |
| 20260503044648 | 47 | 8 | 0.0 | 0.0 | 0.00 | 0.00 | 0.07 | 79 | 327.0 |
| 20260503044142 | 47 | 257 | 0.0 | 0.0 | 0.00 | 0.00 | 0.07 | 80 | 327.1 |
| 20260503043636 | 46 | 256 | 0.0 | 0.0 | 0.00 | 0.00 | 0.07 | 81 | 327.1 |
| 20260503043130 | 46 | 298 | 0.0 | 0.0 | 0.00 | 0.00 | 0.07 | 82 | 327.2 |
| 20260503042624 | 46 | 282 | 0.0 | 0.0 | 0.00 | 0.00 | 0.07 | 81 | 327.3 |
| 20260503042118 | 46 | 256 | 0.0 | 0.0 | 0.00 | 0.00 | 0.07 | 81 | 327.4 |
| 20260503041612 | 46 | 235 | 0.0 | 0.0 | 0.00 | 0.00 | 0.07 | 80 | 327.4 |
| 20260503041106 | 46 | 229 | 0.0 | 0.0 | 0.00 | 0.00 | 0.07 | 80 | 327.5 |
| 20260503040600 | 45 | 238 | 0.0 | 0.0 | 0.00 | 0.00 | 0.07 | 81 | 327.5 |
| 20260503040054 | 45 | 242 | 0.0 | 0.0 | 0.00 | 0.00 | 0.07 | 81 | 327.5 |
| 20260503035548 | 45 | 230 | 0.0 | 0.0 | 0.00 | 0.00 | 0.07 | 81 | 327.5 |
| 20260503035042 | 45 | 219 | 0.0 | 0.0 | 0.00 | 0.00 | 0.07 | 82 | 327.6 |
| 20260503034536 | 45 | 227 | 0.0 | 0.0 | 0.00 | 0.00 | 0.07 | 82 | 327.6 |
| 20260503034030 | 45 | 224 | 0.0 | 0.0 | 0.00 | 0.00 | 0.07 | 82 | 327.5 |
| 20260503033524 | 45 | 192 | 0.0 | 0.0 | 0.00 | 0.00 | 0.07 | 83 | 327.5 |
| 20260503033018 | 45 | 193 | 0.0 | 0.0 | 0.00 | 0.00 | 0.07 | 83 | 327.5 |
| 20260503032512 | 45 | 192 | 0.0 | 0.0 | 0.00 | 0.00 | 0.07 | 83 | 327.5 |
| 20260503032006 | 45 | 196 | 0.0 | 0.0 | 0.00 | 0.00 | 0.07 | 83 | 327.5 |
| 20260503031500 | 45 | 187 | 0.0 | 0.0 | 0.00 | 0.00 | 0.07 | 83 | 327.5 |
| 20260503030954 | 44 | 192 | 0.0 | 0.0 | 0.00 | 0.00 | 0.07 | 83 | 327.5 |
| 20260503030448 | 44 | 187 | 0.0 | 0.0 | 0.00 | 0.00 | 0.07 | 83 | 327.6 |
| 20260503025942 | 44 | 197 | 0.0 | 0.0 | 0.00 | 0.00 | 0.07 | 83 | 327.5 |
| 20260503025436 | 44 | 205 | 0.0 | 0.0 | 0.00 | 0.00 | 0.07 | 83 | 327.6 |
| 20260503024930 | 44 | 201 | 0.0 | 0.0 | 0.00 | 0.00 | 0.07 | 82 | 327.6 |
| 20260503024424 | 44 | 194 | 0.0 | 0.0 | 0.00 | 0.00 | 0.07 | 82 | 327.6 |
| 20260503023918 | 44 | 192 | 0.0 | 0.0 | 0.00 | 0.00 | 0.07 | 82 | 327.6 |
| 20260503023412 | 44 | 192 | 0.0 | 0.0 | 0.00 | 0.00 | 0.07 | 82 | 327.7 |
| 20260503022906 | 44 | 194 | 0.0 | 0.0 | 0.00 | 0.00 | 0.07 | 81 | 327.7 |
| 20260503022400 | 44 | 188 | 0.0 | 0.0 | 0.00 | 0.00 | 0.07 | 81 | 327.7 |
| 20260503021854 | 44 | 188 | 0.0 | 0.0 | 0.00 | 0.00 | 0.07 | 81 | 327.8 |
| 20260503021348 | 44 | 190 | 0.0 | 0.0 | 0.00 | 0.00 | 0.07 | 81 | 327.8 |
| 20260503020842 | 44 | 192 | 0.0 | 0.0 | 0.00 | 0.00 | 0.07 | 82 | 327.8 |
| 20260503020336 | 43 | 204 | 0.0 | 0.0 | 0.00 | 0.00 | 0.07 | 82 | 327.8 |